Year,Month,Day,Hour,Minute,Value (Times are PST for temperature in C)
2016,09,23,00,00,14.40
2016,09,23,00,01,14.40
2016,09,23,00,02,14.40
2016,09,23,00,03,14.40
2016,09,23,00,04,14.40
2016,09,23,00,05,14.40
2016,09,23,00,06,14.40
2016,09,23,00,07,14.40
2016,09,23,00,08,14.40
2016,09,23,00,09,14.40
2016,09,23,00,10,14.40
2016,09,23,00,11,14.40
2016,09,23,00,12,14.40
2016,09,23,00,13,14.40
2016,09,23,00,14,14.40
2016,09,23,00,15,14.40
2016,09,23,00,16,14.40
2016,09,23,00,17,14.40
2016,09,23,00,18,14.40
2016,09,23,00,19,14.40
2016,09,23,00,20,14.40
2016,09,23,00,21,14.40
2016,09,23,00,22,14.40
2016,09,23,00,23,14.40
2016,09,23,00,24,14.40
2016,09,23,00,25,14.50
2016,09,23,00,26,14.50
2016,09,23,00,27,14.50
2016,09,23,00,28,14.60
2016,09,23,00,29,14.60
2016,09,23,00,30,14.60
2016,09,23,00,31,14.60
2016,09,23,00,32,14.60
2016,09,23,00,33,14.70
2016,09,23,00,34,14.70
2016,09,23,00,35,14.70
2016,09,23,00,36,14.70
2016,09,23,00,37,14.70
2016,09,23,00,38,14.60
2016,09,23,00,39,14.60
2016,09,23,00,40,14.60
2016,09,23,00,41,14.60
2016,09,23,00,42,14.60
2016,09,23,00,43,14.60
2016,09,23,00,44,14.50
2016,09,23,00,45,14.50
2016,09,23,00,46,14.50
2016,09,23,00,47,14.40
2016,09,23,00,48,14.40
2016,09,23,00,49,14.40
2016,09,23,00,50,14.30
2016,09,23,00,51,14.30
2016,09,23,00,52,14.30
2016,09,23,00,53,14.30
2016,09,23,00,54,14.30
2016,09,23,00,55,14.30
2016,09,23,00,56,14.30
2016,09,23,00,57,14.20
2016,09,23,00,58,14.20
2016,09,23,00,59,14.20
2016,09,23,01,00,14.20
2016,09,23,01,01,14.10
2016,09,23,01,02,14.10
2016,09,23,01,03,14.10
2016,09,23,01,04,14.10
2016,09,23,01,05,14.10
2016,09,23,01,06,14.10
2016,09,23,01,07,14.10
2016,09,23,01,08,14.10
2016,09,23,01,09,14.10
2016,09,23,01,10,14.00
2016,09,23,01,11,14.00
2016,09,23,01,12,14.00
2016,09,23,01,13,14.00
2016,09,23,01,14,14.00
2016,09,23,01,15,14.00
2016,09,23,01,16,13.90
2016,09,23,01,17,13.90
2016,09,23,01,18,13.90
2016,09,23,01,19,13.90
2016,09,23,01,20,13.90
2016,09,23,01,21,13.90
2016,09,23,01,22,13.90
2016,09,23,01,23,13.90
2016,09,23,01,24,14.00
2016,09,23,01,25,14.00
2016,09,23,01,26,14.00
2016,09,23,01,27,14.10
2016,09,23,01,28,14.10
2016,09,23,01,29,14.10
2016,09,23,01,30,14.10
2016,09,23,01,31,14.10
2016,09,23,01,32,14.10
2016,09,23,01,33,14.10
2016,09,23,01,34,14.00
2016,09,23,01,35,14.00
2016,09,23,01,36,14.00
2016,09,23,01,37,14.00
2016,09,23,01,38,14.00
2016,09,23,01,39,14.00
2016,09,23,01,40,14.00
2016,09,23,01,41,14.00
2016,09,23,01,42,14.00
2016,09,23,01,43,14.00
2016,09,23,01,44,13.90
2016,09,23,01,45,13.90
2016,09,23,01,46,13.90
2016,09,23,01,47,13.90
2016,09,23,01,48,13.90
2016,09,23,01,49,13.90
2016,09,23,01,50,13.80
2016,09,23,01,51,13.80
2016,09,23,01,52,13.80
2016,09,23,01,53,13.70
2016,09,23,01,54,13.70
2016,09,23,01,55,13.70
2016,09,23,01,56,13.70
2016,09,23,01,57,13.70
2016,09,23,01,58,13.60
2016,09,23,01,59,13.60
2016,09,23,02,00,13.60
2016,09,23,02,01,13.60
2016,09,23,02,02,13.60
2016,09,23,02,03,13.60
2016,09,23,02,04,13.60
2016,09,23,02,05,13.60
2016,09,23,02,06,13.60
2016,09,23,02,07,13.60
2016,09,23,02,08,13.60
2016,09,23,02,09,13.60
2016,09,23,02,10,13.60
2016,09,23,02,11,13.60
2016,09,23,02,12,13.60
2016,09,23,02,13,13.60
2016,09,23,02,14,13.50
2016,09,23,02,15,13.50
2016,09,23,02,16,13.50
2016,09,23,02,17,13.50
2016,09,23,02,18,13.50
2016,09,23,02,19,13.50
2016,09,23,02,20,13.50
2016,09,23,02,21,13.40
2016,09,23,02,22,13.40
2016,09,23,02,23,13.40
2016,09,23,02,24,13.30
2016,09,23,02,25,13.30
2016,09,23,02,26,13.20
2016,09,23,02,27,13.20
2016,09,23,02,28,13.20
2016,09,23,02,29,13.20
2016,09,23,02,30,13.10
2016,09,23,02,31,13.10
2016,09,23,02,32,13.10
2016,09,23,02,33,13.00
2016,09,23,02,34,13.00
2016,09,23,02,35,13.00
2016,09,23,02,36,12.90
2016,09,23,02,37,12.90
2016,09,23,02,38,12.90
2016,09,23,02,39,12.90
2016,09,23,02,40,12.80
2016,09,23,02,41,12.80
2016,09,23,02,42,12.80
2016,09,23,02,43,12.80
2016,09,23,02,44,12.70
2016,09,23,02,45,12.70
2016,09,23,02,46,12.70
2016,09,23,02,47,12.70
2016,09,23,02,48,12.70
2016,09,23,02,49,12.70
2016,09,23,02,50,12.60
2016,09,23,02,51,12.50
2016,09,23,02,52,12.50
2016,09,23,02,53,12.40
2016,09,23,02,54,12.30
2016,09,23,02,55,12.30
2016,09,23,02,56,12.20
2016,09,23,02,57,12.20
2016,09,23,02,58,12.20
2016,09,23,02,59,12.00
2016,09,23,03,00,11.90
2016,09,23,03,01,11.80
2016,09,23,03,02,11.80
2016,09,23,03,03,11.80
2016,09,23,03,04,11.70
2016,09,23,03,05,11.70
2016,09,23,03,06,11.60
2016,09,23,03,07,11.60
2016,09,23,03,08,11.60
2016,09,23,03,09,11.60
2016,09,23,03,10,11.60
2016,09,23,03,11,11.60
2016,09,23,03,12,11.60
2016,09,23,03,13,11.60
2016,09,23,03,14,11.60
2016,09,23,03,15,11.50
2016,09,23,03,16,11.50
2016,09,23,03,17,11.50
2016,09,23,03,18,11.50
2016,09,23,03,19,11.50
2016,09,23,03,20,11.40
2016,09,23,03,21,11.40
2016,09,23,03,22,11.40
2016,09,23,03,23,11.40
2016,09,23,03,24,11.40
2016,09,23,03,25,11.40
2016,09,23,03,26,11.40
2016,09,23,03,27,11.40
2016,09,23,03,28,11.40
2016,09,23,03,29,11.40
2016,09,23,03,30,11.40
2016,09,23,03,31,11.40
2016,09,23,03,32,11.40
2016,09,23,03,33,11.40
2016,09,23,03,34,11.40
2016,09,23,03,35,11.30
2016,09,23,03,36,11.30
2016,09,23,03,37,11.30
2016,09,23,03,38,11.30
2016,09,23,03,39,11.30
2016,09,23,03,40,11.30
2016,09,23,03,41,11.30
2016,09,23,03,42,11.30
2016,09,23,03,43,11.30
2016,09,23,03,44,11.30
2016,09,23,03,45,11.20
2016,09,23,03,46,11.20
2016,09,23,03,47,11.20
2016,09,23,03,48,11.20
2016,09,23,03,49,11.20
2016,09,23,03,50,11.20
2016,09,23,03,51,11.20
2016,09,23,03,52,11.20
2016,09,23,03,53,11.20
2016,09,23,03,54,11.20
2016,09,23,03,55,11.20
2016,09,23,03,56,11.20
2016,09,23,03,57,11.20
2016,09,23,03,58,11.20
2016,09,23,03,59,11.20
2016,09,23,04,00,11.20
2016,09,23,04,01,11.20
2016,09,23,04,02,11.20
2016,09,23,04,03,11.20
2016,09,23,04,04,11.20
2016,09,23,04,05,11.20
2016,09,23,04,06,11.20
2016,09,23,04,07,11.20
2016,09,23,04,08,11.20
2016,09,23,04,09,11.20
2016,09,23,04,10,11.20
2016,09,23,04,11,11.20
2016,09,23,04,12,11.20
2016,09,23,04,13,11.20
2016,09,23,04,14,11.20
2016,09,23,04,15,11.20
2016,09,23,04,16,11.20
2016,09,23,04,17,11.20
2016,09,23,04,18,11.20
2016,09,23,04,19,11.20
2016,09,23,04,20,11.20
2016,09,23,04,21,11.20
2016,09,23,04,22,11.20
2016,09,23,04,23,11.20
2016,09,23,04,24,11.20
2016,09,23,04,25,11.20
2016,09,23,04,26,11.20
2016,09,23,04,27,11.20
2016,09,23,04,28,11.20
2016,09,23,04,29,11.20
2016,09,23,04,30,11.20
2016,09,23,04,31,11.20
2016,09,23,04,32,11.20
2016,09,23,04,33,11.20
2016,09,23,04,34,11.20
2016,09,23,04,35,11.20
2016,09,23,04,36,11.20
2016,09,23,04,37,11.20
2016,09,23,04,38,11.20
2016,09,23,04,39,11.20
2016,09,23,04,40,11.20
2016,09,23,04,41,11.20
2016,09,23,04,42,11.20
2016,09,23,04,43,11.20
2016,09,23,04,44,11.20
2016,09,23,04,45,11.20
2016,09,23,04,46,11.20
2016,09,23,04,47,11.20
2016,09,23,04,48,11.20
2016,09,23,04,49,11.20
2016,09,23,04,50,11.20
2016,09,23,04,51,11.20
2016,09,23,04,52,11.20
2016,09,23,04,53,11.20
2016,09,23,04,54,11.20
2016,09,23,04,55,11.20
2016,09,23,04,56,11.20
2016,09,23,04,57,11.20
2016,09,23,04,58,11.20
2016,09,23,04,59,11.20
2016,09,23,05,00,11.20
2016,09,23,05,01,11.20
2016,09,23,05,02,11.20
2016,09,23,05,03,11.20
2016,09,23,05,04,11.20
2016,09,23,05,05,11.20
2016,09,23,05,06,11.30
2016,09,23,05,07,11.20
2016,09,23,05,08,11.20
2016,09,23,05,09,11.30
2016,09,23,05,10,11.30
2016,09,23,05,11,11.30
2016,09,23,05,12,11.30
2016,09,23,05,13,11.30
2016,09,23,05,14,11.30
2016,09,23,05,15,11.40
2016,09,23,05,16,11.40
2016,09,23,05,17,11.40
2016,09,23,05,18,11.40
2016,09,23,05,19,11.50
2016,09,23,05,20,11.50
2016,09,23,05,21,11.50
2016,09,23,05,22,11.50
2016,09,23,05,23,11.50
2016,09,23,05,24,11.60
2016,09,23,05,25,11.60
2016,09,23,05,26,11.60
2016,09,23,05,27,11.50
2016,09,23,05,28,11.50
2016,09,23,05,29,11.50
2016,09,23,05,30,11.50
2016,09,23,05,31,11.50
2016,09,23,05,32,11.40
2016,09,23,05,33,11.40
2016,09,23,05,34,11.40
2016,09,23,05,35,11.40
2016,09,23,05,36,11.40
2016,09,23,05,37,11.40
2016,09,23,05,38,11.40
2016,09,23,05,39,11.40
2016,09,23,05,40,11.30
2016,09,23,05,41,11.30
2016,09,23,05,42,11.30
2016,09,23,05,43,11.30
2016,09,23,05,44,11.30
2016,09,23,05,45,11.30
2016,09,23,05,46,11.30
2016,09,23,05,47,11.30
2016,09,23,05,48,11.30
2016,09,23,05,49,11.30
2016,09,23,05,50,11.30
2016,09,23,05,51,11.30
2016,09,23,05,52,11.30
2016,09,23,05,53,11.30
2016,09,23,05,54,11.30
2016,09,23,05,55,11.30
2016,09,23,05,56,11.30
2016,09,23,05,57,11.30
2016,09,23,05,58,11.30
2016,09,23,05,59,11.30
2016,09,23,06,00,11.30
2016,09,23,06,01,11.30
2016,09,23,06,02,11.30
2016,09,23,06,03,11.30
2016,09,23,06,04,11.30
2016,09,23,06,05,11.30
2016,09,23,06,06,11.30
2016,09,23,06,07,11.30
2016,09,23,06,08,11.30
2016,09,23,06,09,11.30
2016,09,23,06,10,11.30
2016,09,23,06,11,11.30
2016,09,23,06,12,11.30
2016,09,23,06,13,11.30
2016,09,23,06,14,11.30
2016,09,23,06,15,11.30
2016,09,23,06,16,11.30
2016,09,23,06,17,11.30
2016,09,23,06,18,11.40
2016,09,23,06,19,11.40
2016,09,23,06,20,11.40
2016,09,23,06,21,11.40
2016,09,23,06,22,11.40
2016,09,23,06,23,11.40
2016,09,23,06,24,11.40
2016,09,23,06,25,11.40
2016,09,23,06,26,11.40
2016,09,23,06,27,11.40
2016,09,23,06,28,11.50
2016,09,23,06,29,11.50
2016,09,23,06,30,11.50
2016,09,23,06,31,11.50
2016,09,23,06,32,11.50
2016,09,23,06,33,11.60
2016,09,23,06,34,11.60
2016,09,23,06,35,11.60
2016,09,23,06,36,11.60
2016,09,23,06,37,11.60
2016,09,23,06,38,11.70
2016,09,23,06,39,11.80
2016,09,23,06,40,11.80
2016,09,23,06,41,11.90
2016,09,23,06,42,11.90
2016,09,23,06,43,11.90
2016,09,23,06,44,11.90
2016,09,23,06,45,11.90
2016,09,23,06,46,12.00
2016,09,23,06,47,12.00
2016,09,23,06,48,12.00
2016,09,23,06,49,12.00
2016,09,23,06,50,12.00
2016,09,23,06,51,12.00
2016,09,23,06,52,12.00
2016,09,23,06,53,11.90
2016,09,23,06,54,11.90
2016,09,23,06,55,11.90
2016,09,23,06,56,11.90
2016,09,23,06,57,11.90
2016,09,23,06,58,11.90
2016,09,23,06,59,11.90
2016,09,23,07,00,11.90
2016,09,23,07,01,11.90
2016,09,23,07,02,11.90
2016,09,23,07,03,11.90
2016,09,23,07,04,11.90
2016,09,23,07,05,11.90
2016,09,23,07,06,11.90
2016,09,23,07,07,11.80
2016,09,23,07,08,11.80
2016,09,23,07,09,11.80
2016,09,23,07,10,11.80
2016,09,23,07,11,11.80
2016,09,23,07,12,11.80
2016,09,23,07,13,11.80
2016,09,23,07,14,11.80
2016,09,23,07,15,11.70
2016,09,23,07,16,11.70
2016,09,23,07,17,11.70
2016,09,23,07,18,11.70
2016,09,23,07,19,11.70
2016,09,23,07,20,11.70
2016,09,23,07,21,11.70
2016,09,23,07,22,11.70
2016,09,23,07,23,11.70
2016,09,23,07,24,11.70
2016,09,23,07,25,11.70
2016,09,23,07,26,11.70
2016,09,23,07,27,11.70
2016,09,23,07,28,11.70
2016,09,23,07,29,11.70
2016,09,23,07,30,11.60
2016,09,23,07,31,11.60
2016,09,23,07,32,11.60
2016,09,23,07,33,11.60
2016,09,23,07,34,11.60
2016,09,23,07,35,11.60
2016,09,23,07,36,11.60
2016,09,23,07,37,11.70
2016,09,23,07,38,11.70
2016,09,23,07,39,11.70
2016,09,23,07,40,11.70
2016,09,23,07,41,11.70
2016,09,23,07,42,11.70
2016,09,23,07,43,11.70
2016,09,23,07,44,11.70
2016,09,23,07,45,11.70
2016,09,23,07,46,11.70
2016,09,23,07,47,11.70
2016,09,23,07,48,11.60
2016,09,23,07,49,11.60
2016,09,23,07,50,11.60
2016,09,23,07,51,11.60
2016,09,23,07,52,11.60
2016,09,23,07,53,11.60
2016,09,23,07,54,11.60
2016,09,23,07,55,11.60
2016,09,23,07,56,11.60
2016,09,23,07,57,11.50
2016,09,23,07,58,11.50
2016,09,23,07,59,11.40
2016,09,23,08,00,11.40
2016,09,23,08,01,11.40
2016,09,23,08,02,11.40
2016,09,23,08,03,11.30
2016,09,23,08,04,11.30
2016,09,23,08,05,11.30
2016,09,23,08,06,11.30
2016,09,23,08,07,11.20
2016,09,23,08,08,11.20
2016,09,23,08,09,11.20
2016,09,23,08,10,11.20
2016,09,23,08,11,11.10
2016,09,23,08,12,11.10
2016,09,23,08,13,11.10
2016,09,23,08,14,11.10
2016,09,23,08,15,11.10
2016,09,23,08,16,11.10
2016,09,23,08,17,11.10
2016,09,23,08,18,11.10
2016,09,23,08,19,11.00
2016,09,23,08,20,11.00
2016,09,23,08,21,11.00
2016,09,23,08,22,11.00
2016,09,23,08,23,11.00
2016,09,23,08,24,10.90
2016,09,23,08,25,10.90
2016,09,23,08,26,10.90
2016,09,23,08,27,10.90
2016,09,23,08,28,10.90
2016,09,23,08,29,10.90
2016,09,23,08,30,10.90
2016,09,23,08,31,10.90
2016,09,23,08,32,11.00
2016,09,23,08,33,11.00
2016,09,23,08,34,11.00
2016,09,23,08,35,11.00
2016,09,23,08,36,11.10
2016,09,23,08,37,11.10
2016,09,23,08,38,11.00
2016,09,23,08,39,11.00
2016,09,23,08,40,11.00
2016,09,23,08,41,11.00
2016,09,23,08,42,11.00
2016,09,23,08,43,11.00
2016,09,23,08,44,11.00
2016,09,23,08,45,11.00
2016,09,23,08,46,11.00
2016,09,23,08,47,10.90
2016,09,23,08,48,11.00
2016,09,23,08,49,11.00
2016,09,23,08,50,11.00
2016,09,23,08,51,11.00
2016,09,23,08,52,11.00
2016,09,23,08,53,11.00
2016,09,23,08,54,11.00
2016,09,23,08,55,11.00
2016,09,23,08,56,11.00
2016,09,23,08,57,11.00
2016,09,23,08,58,11.00
2016,09,23,08,59,11.00
2016,09,23,09,00,11.00
2016,09,23,09,01,11.00
2016,09,23,09,02,11.10
2016,09,23,09,03,11.10
2016,09,23,09,04,11.10
2016,09,23,09,05,11.00
2016,09,23,09,06,11.00
2016,09,23,09,07,11.00
2016,09,23,09,08,11.00
2016,09,23,09,09,11.00
2016,09,23,09,10,11.00
2016,09,23,09,11,11.00
2016,09,23,09,12,10.90
2016,09,23,09,13,10.90
2016,09,23,09,14,10.90
2016,09,23,09,15,10.90
2016,09,23,09,16,10.90
2016,09,23,09,17,10.90
2016,09,23,09,18,10.90
2016,09,23,09,19,10.90
2016,09,23,09,20,10.90
2016,09,23,09,21,10.90
2016,09,23,09,22,10.90
2016,09,23,09,23,10.90
2016,09,23,09,24,10.90
2016,09,23,09,25,10.90
2016,09,23,09,26,10.90
2016,09,23,09,27,10.90
2016,09,23,09,28,10.80
2016,09,23,09,29,10.80
2016,09,23,09,30,10.80
2016,09,23,09,31,10.80
2016,09,23,09,32,10.80
2016,09,23,09,33,10.80
2016,09,23,09,34,10.80
2016,09,23,09,35,10.80
2016,09,23,09,36,10.80
2016,09,23,09,37,10.80
2016,09,23,09,38,10.80
2016,09,23,09,39,10.80
2016,09,23,09,40,10.80
2016,09,23,09,41,10.80
2016,09,23,09,42,10.80
2016,09,23,09,43,10.80
2016,09,23,09,44,10.80
2016,09,23,09,45,10.80
2016,09,23,09,46,10.80
2016,09,23,09,47,10.70
2016,09,23,09,48,10.70
2016,09,23,09,49,10.70
2016,09,23,09,50,10.70
2016,09,23,09,51,10.70
2016,09,23,09,52,10.70
2016,09,23,09,53,10.70
2016,09,23,09,54,10.70
2016,09,23,09,55,10.70
2016,09,23,09,56,10.70
2016,09,23,09,57,10.70
2016,09,23,09,58,10.70
2016,09,23,09,59,10.70
2016,09,23,10,00,10.70
2016,09,23,10,01,10.70
2016,09,23,10,02,10.70
2016,09,23,10,03,10.70
2016,09,23,10,04,10.70
2016,09,23,10,05,10.70
2016,09,23,10,06,10.70
2016,09,23,10,07,10.70
2016,09,23,10,08,10.70
2016,09,23,10,09,10.70
2016,09,23,10,10,10.70
2016,09,23,10,11,10.70
2016,09,23,10,12,10.70
2016,09,23,10,13,10.70
2016,09,23,10,14,10.70
2016,09,23,10,15,10.70
2016,09,23,10,16,10.70
2016,09,23,10,17,10.70
2016,09,23,10,18,10.70
2016,09,23,10,19,10.70
2016,09,23,10,20,10.70
2016,09,23,10,21,10.70
2016,09,23,10,22,10.80
2016,09,23,10,23,10.80
2016,09,23,10,24,10.80
2016,09,23,10,25,10.70
2016,09,23,10,26,10.70
2016,09,23,10,27,10.70
2016,09,23,10,28,10.70
2016,09,23,10,29,10.70
2016,09,23,10,30,10.70
2016,09,23,10,31,10.70
2016,09,23,10,32,10.70
2016,09,23,10,33,10.70
2016,09,23,10,34,10.70
2016,09,23,10,35,10.70
2016,09,23,10,36,10.60
2016,09,23,10,37,10.60
2016,09,23,10,38,10.60
2016,09,23,10,39,10.60
2016,09,23,10,40,10.60
2016,09,23,10,41,10.60
2016,09,23,10,42,10.50
2016,09,23,10,43,10.50
2016,09,23,10,44,10.50
2016,09,23,10,45,10.50
2016,09,23,10,46,10.50
2016,09,23,10,47,10.50
2016,09,23,10,48,10.50
2016,09,23,10,49,10.50
2016,09,23,10,50,10.50
2016,09,23,10,51,10.50
2016,09,23,10,52,10.50
2016,09,23,10,53,10.50
2016,09,23,10,54,10.50
2016,09,23,10,55,10.50
2016,09,23,10,56,10.60
2016,09,23,10,57,10.60
2016,09,23,10,58,10.60
2016,09,23,10,59,10.60
2016,09,23,11,00,10.60
2016,09,23,11,01,10.60
2016,09,23,11,02,10.60
2016,09,23,11,03,10.60
2016,09,23,11,04,10.60
2016,09,23,11,05,10.60
2016,09,23,11,06,10.60
2016,09,23,11,07,10.60
2016,09,23,11,08,10.60
2016,09,23,11,09,10.60
2016,09,23,11,10,10.60
2016,09,23,11,11,10.60
2016,09,23,11,12,10.60
2016,09,23,11,13,10.60
2016,09,23,11,14,10.60
2016,09,23,11,15,10.70
2016,09,23,11,16,10.70
2016,09,23,11,17,10.70
2016,09,23,11,18,10.70
2016,09,23,11,19,10.70
2016,09,23,11,20,10.70
2016,09,23,11,21,10.70
2016,09,23,11,22,10.70
2016,09,23,11,23,10.80
2016,09,23,11,24,10.80
2016,09,23,11,25,10.80
2016,09,23,11,26,10.80
2016,09,23,11,27,10.80
2016,09,23,11,28,10.80
2016,09,23,11,29,10.70
2016,09,23,11,30,10.70
2016,09,23,11,31,10.70
2016,09,23,11,32,10.70
2016,09,23,11,33,10.70
2016,09,23,11,34,10.70
2016,09,23,11,35,10.70
2016,09,23,11,36,10.70
2016,09,23,11,37,10.70
2016,09,23,11,38,10.70
2016,09,23,11,39,10.70
2016,09,23,11,40,10.70
2016,09,23,11,41,10.70
2016,09,23,11,42,10.70
2016,09,23,11,43,10.70
2016,09,23,11,44,10.70
2016,09,23,11,45,10.70
2016,09,23,11,46,10.70
2016,09,23,11,47,10.70
2016,09,23,11,48,10.70
2016,09,23,11,49,10.70
2016,09,23,11,50,10.70
2016,09,23,11,51,10.70
2016,09,23,11,52,10.70
2016,09,23,11,53,10.70
2016,09,23,11,54,10.70
2016,09,23,11,55,10.70
2016,09,23,11,56,10.70
2016,09,23,11,57,10.70
2016,09,23,11,58,10.70
2016,09,23,11,59,10.70
2016,09,23,12,00,10.70
2016,09,23,12,01,10.70
2016,09,23,12,02,10.80
2016,09,23,12,03,10.80
2016,09,23,12,04,10.80
2016,09,23,12,05,10.80
2016,09,23,12,06,10.80
2016,09,23,12,07,10.80
2016,09,23,12,08,10.80
2016,09,23,12,09,10.80
2016,09,23,12,10,10.80
2016,09,23,12,11,10.80
2016,09,23,12,12,10.80
2016,09,23,12,13,10.80
2016,09,23,12,14,10.80
2016,09,23,12,15,10.80
2016,09,23,12,16,10.80
2016,09,23,12,17,10.80
2016,09,23,12,18,10.80
2016,09,23,12,19,10.80
2016,09,23,12,20,10.80
2016,09,23,12,21,10.80
2016,09,23,12,22,10.80
2016,09,23,12,23,10.80
2016,09,23,12,24,10.80
2016,09,23,12,25,10.80
2016,09,23,12,26,10.80
2016,09,23,12,27,10.80
2016,09,23,12,28,10.80
2016,09,23,12,29,10.90
2016,09,23,12,30,10.90
2016,09,23,12,31,10.90
2016,09,23,12,32,10.90
2016,09,23,12,33,10.90
2016,09,23,12,34,11.00
2016,09,23,12,35,11.00
2016,09,23,12,36,11.00
2016,09,23,12,37,11.00
2016,09,23,12,38,11.00
2016,09,23,12,39,11.00
2016,09,23,12,40,11.10
2016,09,23,12,41,11.10
2016,09,23,12,42,11.10
2016,09,23,12,43,11.10
2016,09,23,12,44,11.10
2016,09,23,12,45,11.10
2016,09,23,12,46,11.10
2016,09,23,12,47,11.10
2016,09,23,12,48,11.10
2016,09,23,12,49,11.10
2016,09,23,12,50,11.10
2016,09,23,12,51,11.10
2016,09,23,12,52,11.10
2016,09,23,12,53,11.10
2016,09,23,12,54,11.10
2016,09,23,12,55,11.10
2016,09,23,12,56,11.10
2016,09,23,12,57,11.10
2016,09,23,12,58,11.10
2016,09,23,12,59,11.10
2016,09,23,13,00,11.10
2016,09,23,13,01,11.10
2016,09,23,13,02,11.10
2016,09,23,13,03,11.10
2016,09,23,13,04,11.10
2016,09,23,13,05,11.10
2016,09,23,13,06,11.10
2016,09,23,13,07,11.20
2016,09,23,13,08,11.10
2016,09,23,13,09,11.10
2016,09,23,13,10,11.10
2016,09,23,13,11,11.10
2016,09,23,13,12,11.10
2016,09,23,13,13,11.10
2016,09,23,13,14,11.10
2016,09,23,13,15,11.20
2016,09,23,13,16,11.20
2016,09,23,13,17,11.20
2016,09,23,13,18,11.20
2016,09,23,13,19,11.20
2016,09,23,13,20,11.20
2016,09,23,13,21,11.10
2016,09,23,13,22,11.10
2016,09,23,13,23,11.10
2016,09,23,13,24,11.00
2016,09,23,13,25,11.00
2016,09,23,13,26,11.00
2016,09,23,13,27,10.90
2016,09,23,13,28,10.90
2016,09,23,13,29,10.90
2016,09,23,13,30,10.90
2016,09,23,13,31,10.90
2016,09,23,13,32,10.90
2016,09,23,13,33,10.90
2016,09,23,13,34,10.90
2016,09,23,13,35,10.90
2016,09,23,13,36,10.90
2016,09,23,13,37,10.90
2016,09,23,13,38,10.90
2016,09,23,13,39,10.90
2016,09,23,13,40,10.90
2016,09,23,13,41,10.90
2016,09,23,13,42,10.90
2016,09,23,13,43,10.90
2016,09,23,13,44,10.90
2016,09,23,13,45,11.00
2016,09,23,13,46,11.00
2016,09,23,13,47,11.00
2016,09,23,13,48,11.00
2016,09,23,13,49,11.00
2016,09,23,13,50,11.00
2016,09,23,13,51,11.00
2016,09,23,13,52,11.00
2016,09,23,13,53,11.00
2016,09,23,13,54,10.90
2016,09,23,13,55,10.90
2016,09,23,13,56,10.90
2016,09,23,13,57,10.90
2016,09,23,13,58,10.90
2016,09,23,13,59,10.90
2016,09,23,14,00,10.80
2016,09,23,14,01,10.80
2016,09,23,14,02,10.80
2016,09,23,14,03,10.80
2016,09,23,14,04,10.80
2016,09,23,14,05,10.90
2016,09,23,14,06,10.90
2016,09,23,14,07,10.90
2016,09,23,14,08,10.90
2016,09,23,14,09,10.90
2016,09,23,14,10,10.80
2016,09,23,14,11,10.80
2016,09,23,14,12,10.80
2016,09,23,14,13,10.80
2016,09,23,14,14,10.80
2016,09,23,14,15,10.80
2016,09,23,14,16,10.80
2016,09,23,14,17,10.80
2016,09,23,14,18,10.80
2016,09,23,14,19,10.80
2016,09,23,14,20,10.80
2016,09,23,14,21,10.80
2016,09,23,14,22,10.80
2016,09,23,14,23,10.80
2016,09,23,14,24,10.80
2016,09,23,14,25,10.80
2016,09,23,14,26,10.90
2016,09,23,14,27,10.90
2016,09,23,14,28,10.90
2016,09,23,14,29,10.80
2016,09,23,14,30,10.90
2016,09,23,14,31,10.90
2016,09,23,14,32,10.90
2016,09,23,14,33,10.90
2016,09,23,14,34,10.90
2016,09,23,14,35,10.90
2016,09,23,14,36,10.90
2016,09,23,14,37,10.90
2016,09,23,14,38,11.00
2016,09,23,14,39,11.00
2016,09,23,14,40,11.00
2016,09,23,14,41,11.00
2016,09,23,14,42,11.00
2016,09,23,14,43,11.00
2016,09,23,14,44,10.90
2016,09,23,14,45,10.90
2016,09,23,14,46,10.90
2016,09,23,14,47,10.90
2016,09,23,14,48,10.90
2016,09,23,14,49,10.90
2016,09,23,14,50,10.90
2016,09,23,14,51,10.90
2016,09,23,14,52,10.90
2016,09,23,14,53,10.90
2016,09,23,14,54,10.90
2016,09,23,14,55,10.90
2016,09,23,14,56,11.00
2016,09,23,14,57,11.00
2016,09,23,14,58,11.00
2016,09,23,14,59,11.00
2016,09,23,15,00,11.00
2016,09,23,15,01,11.10
2016,09,23,15,02,11.10
2016,09,23,15,03,11.10
2016,09,23,15,04,11.20
2016,09,23,15,05,11.20
2016,09,23,15,06,11.20
2016,09,23,15,07,11.20
2016,09,23,15,08,11.20
2016,09,23,15,09,11.20
2016,09,23,15,10,11.20
2016,09,23,15,11,11.20
2016,09,23,15,12,11.20
2016,09,23,15,13,11.20
2016,09,23,15,14,11.20
2016,09,23,15,15,11.20
2016,09,23,15,16,11.20
2016,09,23,15,17,11.30
2016,09,23,15,18,11.30
2016,09,23,15,19,11.30
2016,09,23,15,20,11.40
2016,09,23,15,21,11.40
2016,09,23,15,22,11.50
2016,09,23,15,23,11.50
2016,09,23,15,24,11.50
2016,09,23,15,25,11.50
2016,09,23,15,26,11.40
2016,09,23,15,27,11.40
2016,09,23,15,28,11.40
2016,09,23,15,29,11.40
2016,09,23,15,30,11.40
2016,09,23,15,31,11.40
2016,09,23,15,32,11.40
2016,09,23,15,33,11.40
2016,09,23,15,34,11.40
2016,09,23,15,35,11.40
2016,09,23,15,36,11.40
2016,09,23,15,37,11.40
2016,09,23,15,38,11.40
2016,09,23,15,39,11.50
2016,09,23,15,40,11.50
2016,09,23,15,41,11.50
2016,09,23,15,42,11.60
2016,09,23,15,43,11.60
2016,09,23,15,44,11.70
2016,09,23,15,45,11.70
2016,09,23,15,46,11.70
2016,09,23,15,47,11.70
2016,09,23,15,48,11.70
2016,09,23,15,49,11.70
2016,09,23,15,50,11.70
2016,09,23,15,51,11.70
2016,09,23,15,52,11.70
2016,09,23,15,53,11.70
2016,09,23,15,54,11.70
2016,09,23,15,55,11.70
2016,09,23,15,56,11.70
2016,09,23,15,57,11.70
2016,09,23,15,58,11.80
2016,09,23,15,59,11.80
2016,09,23,16,00,11.80
2016,09,23,16,01,11.80
2016,09,23,16,02,11.80
2016,09,23,16,03,11.80
2016,09,23,16,04,11.80
2016,09,23,16,05,11.80
2016,09,23,16,06,11.80
2016,09,23,16,07,11.80
2016,09,23,16,08,11.80
2016,09,23,16,09,11.80
2016,09,23,16,10,11.90
2016,09,23,16,11,11.90
2016,09,23,16,12,11.90
2016,09,23,16,13,11.90
2016,09,23,16,14,12.00
2016,09,23,16,15,12.00
2016,09,23,16,16,12.10
2016,09,23,16,17,12.10
2016,09,23,16,18,12.00
2016,09,23,16,19,12.10
2016,09,23,16,20,12.10
2016,09,23,16,21,12.10
2016,09,23,16,22,12.10
2016,09,23,16,23,12.10
2016,09,23,16,24,12.20
2016,09,23,16,25,12.20
2016,09,23,16,26,12.20
2016,09,23,16,27,12.20
2016,09,23,16,28,12.20
2016,09,23,16,29,12.30
2016,09,23,16,30,12.30
2016,09,23,16,31,12.30
2016,09,23,16,32,12.30
2016,09,23,16,33,12.40
2016,09,23,16,34,12.40
2016,09,23,16,35,12.40
2016,09,23,16,36,12.40
2016,09,23,16,37,12.40
2016,09,23,16,38,12.40
2016,09,23,16,39,12.40
2016,09,23,16,40,12.40
2016,09,23,16,41,12.40
2016,09,23,16,42,12.40
2016,09,23,16,43,12.40
2016,09,23,16,44,12.40
2016,09,23,16,45,12.40
2016,09,23,16,46,12.50
2016,09,23,16,47,12.50
2016,09,23,16,48,12.50
2016,09,23,16,49,12.50
2016,09,23,16,50,12.60
2016,09,23,16,51,12.60
2016,09,23,16,52,12.60
2016,09,23,16,53,12.60
2016,09,23,16,54,12.60
2016,09,23,16,55,12.60
2016,09,23,16,56,12.60
2016,09,23,16,57,12.60
2016,09,23,16,58,12.60
2016,09,23,16,59,12.60
2016,09,23,17,00,12.60
2016,09,23,17,01,12.60
2016,09,23,17,02,12.60
2016,09,23,17,03,12.50
2016,09,23,17,04,12.50
2016,09,23,17,05,12.50
2016,09,23,17,06,12.60
2016,09,23,17,07,12.60
2016,09,23,17,08,12.60
2016,09,23,17,09,12.60
2016,09,23,17,10,12.60
2016,09,23,17,11,12.60
2016,09,23,17,12,12.60
2016,09,23,17,13,12.70
2016,09,23,17,14,12.60
2016,09,23,17,15,12.60
2016,09,23,17,16,12.60
2016,09,23,17,17,12.50
2016,09,23,17,18,12.50
2016,09,23,17,19,12.50